Regional Weather Roundup
Issued by NWS

Home | Current Version | Previous Version | Text Only | Print | Product List | Glossary On
Versions: 1 2 3 4 5 6 7 8 9 10 11 12 13 14 15 16 17 18 19 20 21 22 23 24 25 26 27 28 29 30 31 32 33 34 35 36 37 38 39 40 41 42 43 44 45 46 47 48 49 50
000
ASUS45 KREV 100810
RWRNV
NEVADA REGIONAL WEATHER ROUNDUP
NATIONAL WEATHER SERVICE RENO NV
1200 AM PST WED FEB 10 2016

NOTE: "FAIR" INDICATES FEW OR NO CLOUDS BELOW 12,000 FEET WITH NO
SIGNIFICANT WEATHER AND/OR OBSTRUCTIONS TO VISIBILITY.

NVZ001-003-004-100900-
WESTERN NEVADA

CITY           SKY/WX    TMP DP  RH WIND       PRES   REMARKS
RENO           MOCLDY    40  32  73 W5        30.38S
CARSON CITY    FAIR      34  32  93 N3        30.40R
PYRAMID LAKE     N/A     46 N/A N/A S3          N/A
FALLON         MOCLDY    33  30  88 S7        30.38S
LOVELOCK       MOCLDY    29  23  78 NE3       30.38S
HAWTHORNE      CLEAR     37  32  81 CALM      30.39S
$$

NVZ002-CAZ072-073-100900-
NORTHERN AND CENTRAL SIERRA

CITY           SKY/WX    TMP DP  RH WIND       PRES   REMARKS
S. LAKE TAHOE  PTCLDY    28  24  85 CALM      30.41F
TRUCKEE        MOCLDY    28  25  86 CALM      30.41F
SQUAW VLY 8000   N/A     43  14  31 SW12        N/A
SUSANVILLE     CLEAR     36  32  87 W6        30.37S
BLUE CANYON    PTCLDY    55  12  18 E3        30.36S
MAMMOTH LAKES  FAIR      28  19  69 N5        30.46S
BRIDGEPORT     FAIR      31  20  63 CALM      30.42S
$$

NVZ030-031-036-100900-
NORTHERN NEVADA

CITY           SKY/WX    TMP DP  RH WIND       PRES   REMARKS
ELKO           CLOUDY    12   8  84 CALM      30.45F
WINNEMUCCA     MOCLDY    31  28  89 CALM      30.38S
WENDOVER       CLOUDY    30  27  86 E5        30.48F
$$

NVZ035-037-100900-
CENTRAL NEVADA

CITY           SKY/WX    TMP DP  RH WIND       PRES   REMARKS
ELY            MOCLDY    11   5  77 S15       30.43F WCI  -5
EUREKA           N/A     10   6  84 SW8       30.44R
$$

NVZ013-014-100900-
SOUTH CENTRAL NEVADA

CITY           SKY/WX    TMP DP  RH WIND       PRES   REMARKS
TONOPAH        MOCLDY    32  24  72 N15       30.41S
$$

NVZ017-020-022-100900-
SOUTHERN NEVADA

CITY           SKY/WX    TMP DP  RH WIND       PRES   REMARKS
LAS VEGAS      CLEAR     53  28  38 S5        30.25S
N. LAS VEGAS   CLEAR     56  24  29 CALM      30.28F
NELLIS AFB     CLEAR     50  32  51 CALM      30.28S
HENDERSON      CLEAR     48  28  46 S5        30.31S
MERCURY        PTCLDY    49  26  41 CALM      30.30S
$$



USA.gov is the U.S. government's official web portal to all federal, state and local government web resources and services.